CW3175 Weather Reports


time (UTC)temp
F
wind
direction
speed
knots
gust
knots
rain 1hr
in
rain 24hr
in
rain mn
in
humidity
%
barometer
mb
20150331234844 47 127 0.0 3.5 0.00 0.00 0.00 62 1012.8
20150331233344 47 125 0.0 4.3 0.00 0.00 0.00 63 1013.0
20150331231839 46 113 0.9 5.2 0.00 0.00 0.00 64 1013.1
20150331230339 46 106 0.9 4.3 0.00 0.00 0.00 66 1013.1
20150331224830 47 108 1.7 5.2 0.00 0.00 0.00 64 1013.0
20150331223332 47 111 0.9 4.3 0.00 0.00 0.00 64 1013.0
20150331221827 47 102 2.6 6.1 0.00 0.00 0.00 64 1012.7
20150331220325 47 112 2.6 7.8 0.00 0.00 0.00 66 1012.8
20150331214826 46 96 2.6 8.7 0.00 0.00 0.00 65 1012.8
20150331213323 48 140 2.6 9.6 0.00 0.00 0.00 61 1012.6
20150331211824 48 89 1.7 6.1 0.00 0.00 0.00 62 1012.4
20150331210257 48 77 1.7 6.1 0.00 0.00 0.00 63 1012.7
20150331204758 48 110 1.7 7.8 0.00 0.00 0.00 65 1012.8
20150331203247 47 92 1.7 6.1 0.00 0.00 0.00 65 1012.8
20150331201747 47 119 2.6 7.0 0.00 0.00 0.00 64 1012.8
20150331200240 48 134 1.7 7.8 0.00 0.00 0.00 64 1012.7
20150331194737 48 112 1.7 6.1 0.00 0.00 0.00 63 1012.7
20150331193235 47 65 2.6 8.7 0.00 0.00 0.00 66 1012.8
20150331191732 48 109 1.7 6.1 0.00 0.00 0.00 64 1012.8
20150331190231 48 53 2.6 7.8 0.00 0.00 0.00 64 1012.8
20150331184729 48 88 2.6 7.8 0.00 0.00 0.00 63 1012.8
20150331183229 48 55 1.7 7.8 0.00 0.00 0.00 62 1012.8
20150331181725 49 69 1.7 7.8 0.00 0.00 0.00 64 1012.9
20150331180222 49 25 3.5 8.7 0.00 0.00 0.00 62 1012.8
20150331174723 47 103 2.6 8.7 0.00 0.00 0.00 64 1012.8
20150331173224 47 42 1.7 6.1 0.00 0.00 0.00 66 1012.7
20150331171714 47 66 2.6 10.4 0.00 0.00 0.00 68 1012.6
20150331170214 46 9 4.3 11.3 0.00 0.00 0.00 69 1012.7
20150331164701 46 81 4.3 9.6 0.00 0.00 0.00 71 1012.5
20150331163159 46 51 5.2 12.2 0.00 0.00 0.00 70 1012.3
20150331161701 46 32 2.6 9.6 0.00 0.00 0.00 72 1012.1
20150331160153 46 37 3.5 8.7 0.00 0.00 0.00 74 1011.9
20150331154653 46 9 2.6 8.7 0.00 0.00 0.00 76 1011.8
20150331153154 45 0 3.5 9.6 0.00 0.00 0.00 77 1011.8
20150331151655 44 331 3.5 10.4 0.00 0.00 0.00 80 1011.5
20150331150146 44 26 5.2 11.3 0.00 0.00 0.00 81 1011.4
20150331144646 44 0 4.3 13.9 0.00 0.00 0.00 84 1010.9
20150331143146 44 17 2.6 9.6 0.00 0.00 0.00 88 1010.8
20150331141645 44 31 3.5 12.2 0.00 0.00 0.00 90 1010.3
20150331140147 43 12 4.3 13.0 0.00 0.00 0.00 92 1010.2
20150331134644 43 19 2.6 11.3 0.00 0.00 0.00 93 1009.9
20150331133141 43 268 5.2 13.0 0.00 0.00 0.00 93 1009.8
20150331131639 43 17 3.5 8.7 0.00 0.00 0.00 94 1009.5
20150331130140 43 338 2.6 9.6 0.00 0.00 0.00 94 1009.3
20150331124640 42 0 3.5 9.6 0.00 0.00 0.00 94 1009.1
20150331123140 42 26 2.6 10.4 0.00 0.00 0.00 94 1008.9
20150331121632 41 5 3.5 10.4 0.00 0.00 0.00 93 1008.8
20150331120132 41 9 4.3 10.4 0.00 0.00 0.00 92 1008.4
20150331114631 40 18 4.3 13.0 0.00 0.00 0.00 90 1008.1
20150331113131 41 336 4.3 10.4 0.00 0.00 0.00 89 1007.7
20150331111632 41 30 4.3 10.4 0.00 0.00 0.00 86 1007.0
20150331110130 42 9 4.3 10.4 0.00 0.00 0.00 83 1006.6
20150331104627 42 317 4.3 13.9 0.00 0.00 0.00 80 1006.3
20150331103126 44 344 6.1 14.8 0.00 0.00 0.00 73 1005.8
20150331101626 47 0 6.1 13.0 0.00 0.00 0.00 64 1005.2
20150331100121 50 350 5.2 17.4 0.00 0.00 0.00 56 1004.5
20150331094621 51 344 0.9 6.1 0.00 0.00 0.00 52 1004.3
20150331093105 52 275 0.9 7.8 0.00 0.00 0.00 51 1004.0
20150331091604 53 280 0.9 7.8 0.00 0.00 0.00 49 1003.6
20150331090103 53 280 2.6 11.3 0.00 0.00 0.00 48 1003.5
20150331084603 53 294 0.0 4.3 0.00 0.00 0.00 47 1003.6
20150331083027 53 298 0.9 7.8 0.00 0.00 0.00 46 1003.7
20150331081524 55 281 3.5 10.4 0.00 0.00 0.00 44 1003.4
20150331080025 56 256 4.3 13.9 0.00 0.00 0.00 41 1003.3
20150331074523 56 292 2.6 9.6 0.00 0.00 0.00 40 1003.3
20150331073021 56 269 2.6 14.8 0.00 0.00 0.00 40 1002.8
20150331071519 55 254 2.6 11.3 0.00 0.00 0.00 40 1003.0
20150331070018 56 222 2.6 12.2 0.00 0.00 0.00 40 1003.4
20150331064519 56 260 2.6 12.2 0.00 0.00 0.00 40 1003.4
20150331063018 56 233 4.3 13.9 0.00 0.00 0.00 40 1003.5
20150331061519 55 244 4.3 11.3 0.00 0.00 0.00 41 1003.9
20150331060013 55 211 5.2 14.8 0.00 0.00 0.00 42 1003.8
20150331054507 55 173 4.3 14.8 0.00 0.00 0.00 44 1004.1
20150331053007 54 229 5.2 11.3 0.00 0.00 0.00 45 1004.7
20150331051503 54 273 3.5 12.2 0.00 0.00 0.00 47 1005.1
20150331050000 53 220 1.7 9.6 0.00 0.00 0.00 49 1005.6
20150331044449 52 199 0.9 7.8 0.00 0.00 0.00 50 1006.2
20150331042948 51 193 0.9 6.1 0.00 0.00 0.00 51 1006.7
20150331041444 51 159 0.0 3.5 0.00 0.00 0.00 53 1006.9
20150331035929 50 157 0.0 3.5 0.00 0.00 0.00 54 1007.7
20150331034419 50 152 1.7 6.1 0.00 0.00 0.00 54 1008.1
20150331032919 49 155 1.7 5.2 0.00 0.00 0.00 58 1008.5
20150331031400 49 157 0.0 3.5 0.00 0.00 0.00 60 1009.0
20150331025832 49 144 0.9 5.2 0.00 0.00 0.00 60 1009.5
20150331024326 48 125 1.7 7.0 0.00 0.00 0.00 60 1009.7
20150331022825 48 150 3.5 7.8 0.00 0.00 0.00 59 1010.2
20150331021325 49 140 1.7 7.0 0.00 0.00 0.00 59 1010.5
20150331015826 49 123 0.9 6.1 0.00 0.00 0.00 59 1010.7
20150331014318 49 94 1.7 7.8 0.00 0.00 0.00 60 1010.8
20150331012819 48 148 0.9 5.2 0.00 0.00 0.00 62 1010.9
20150331011315 48 126 0.9 5.2 0.00 0.00 0.00 62 1011.3
20150331005814 48 77 0.9 5.2 0.00 0.00 0.00 62 1011.3
20150331004313 48 123 0.9 6.1 0.00 0.00 0.00 61 1011.4
20150331002813 48 65 1.7 7.8 0.00 0.00 0.00 61 1011.8
20150331001241 49 60 1.7 6.1 0.00 0.00 0.00 59 1012.3
20150330235743 51 87 1.7 5.2 0.00 0.00 0.00 56 1012.4